Location: Newark
(20.0000°S, 47.0000°E)
Time: 13:14:06
(UTC+00:00)

N. Korean satellite - Pass Details

Date: 14 August 2020
Orbit: 455 x 503 km, 97.2° (Epoch: 20 September)

Event Time Altitude Azimuth Distance (km) Brightness Sun altitude
Rises 01:57:35 0° 8° (N) 2,566 10.5 -18.5°
Reaches altitude 10° 01:59:39 10° 6° (N) 1,695 9.5 -18.0°
Maximum altitude 02:03:18 75° 281° (W) 526 6.5 -17.1°
Drops below altitude 10° 02:07:01 10° 195° (SSW) 1,727 9.1 -16.3°
Enters shadow 02:07:42 - 194° (SSW) 2,012 9.5 -16.1°
